Location: Oroua River
(40.4333°S, 175.4333°E)
Time: 13:48:50
(UTC+00:00)

Cosmos 2285 Rocket - Pass Details

Date: 03 February 2023
Orbit: 971 x 998 km, 74.0° (Epoch: 22 March)

Event Time Altitude Azimuth Distance (km) Brightness Sun altitude
Exits shadow 12:09:23 66° 213° (SSW) 1,072 4.2 -32.8°
Drops below altitude 10° 12:15:13 10° 165° (SSE) 2,767 7.1 -32.9°
Sets 12:17:48 0° 162° (SSE) 3,725 8.0 -33.0°
